Weather History for Broken Bow, NE

Change the Weather History Date:

Thursday, January 24, 2013

  Actual Average Record
Temperature  
Mean Temperature 15 °F 26 °F  
Max Temperature 27 °F 38 °F 75 °F (1896)
Min Temperature 2 °F 13 °F -18 °F (1915)
Degree Days  
Heating Degree Days 50 39  
Month to date heating degree days 974 943  
Cooling Degree Days 0 0  
Month to date cooling degree days 0 0  
Year to date cooling degree days 0 0  
Moisture  
Dew Point 5 °F    
Average Humidity 72    
Maximum Humidity 95    
Minimum Humidity 49    
Precipitation  
Precipitation 0.00 in 0.02 in 0.45 in (1965)
Sea Level Pressure  
Sea Level Pressure 30.29 in    
Wind  
Wind Speed 10 mph (South)    
Max Wind Speed 24 mph    
Max Gust Speed 40 mph    
Visibility 10 miles    
Events      
T = Trace of Precipitation, MM = Missing Value Source: NWS Daily Summary

Daily Weather History Graph

Daily Weather History Graph

Search for Another Location

Airport:

Trip Planner

Search our weather history database for the weather conditions in past years. The results will help you decide how hot, cold, wet, or windy it might be!

Date:

Astronomy

Jan. 24, 2013 Rise Set
Actual Time 7:56 AM CST 5:45 PM CST
Civil Twilight 7:27 AM CST 6:14 PM CST
Nautical Twilight 6:53 AM CST 6:48 PM CST
Astronomical Twilight 6:20 AM CST 7:21 PM CST
Moon 3:48 PM CST (1/24) 5:56 AM CST (1/24)
Length of Visible Light 10h 47m
Length of Day
9h 48m
Waxing Gibbous, 94% of the Moon is Illuminated
Jan 24
Waxing Gibbous
Jan 26
Full
Feb 3
Last Quarter
Feb 10
New
Feb 17
First Quarter

Hourly Weather History & Observations

Time (CST) Temp. Windchill Dew Point Humidity Pressure Visibility Wind Dir Wind Speed Gust Speed Precip Events Conditions
12:53 AM 7.0 °F 0.1 °F 3.0 °F 84% 30.51 in 10.0 mi East 3.5 mph - N/A   Clear
1:53 AM 5.0 °F -2.1 °F 1.0 °F 84% 30.51 in 10.0 mi ENE 3.5 mph - N/A   Clear
2:53 AM 5.0 °F -4.1 °F 1.0 °F 84% 30.48 in 10.0 mi East 4.6 mph - N/A   Clear
3:53 AM 5.0 °F -4.1 °F 1.0 °F 84% 30.48 in 10.0 mi SE 4.6 mph - N/A   Clear
4:53 AM 5.0 °F -5.6 °F 1.0 °F 84% 30.47 in 10.0 mi SE 5.8 mph - N/A   Clear
5:53 AM 3.0 °F -10.5 °F -0.0 °F 87% 30.45 in 10.0 mi SE 8.1 mph - N/A   Clear
6:53 AM 1.9 °F -10.6 °F -0.9 °F 88% 30.44 in 10.0 mi SE 6.9 mph - N/A   Clear
7:53 AM 1.9 °F -14.7 °F -0.9 °F 88% 30.43 in 10.0 mi SSE 11.5 mph - N/A   Clear
8:40 AM 3.2 °F -14.6 °F 1.4 °F 92% 30.27 in 10.0 mi SSE 13.8 mph - N/A   Partly Cloudy
8:53 AM 5.0 °F -12.3 °F 1.9 °F 87% 30.43 in 8.0 mi SSE 13.8 mph 20.7 mph N/A   Mostly Cloudy
9:53 AM 8.1 °F -9.0 °F 3.9 °F 83% 30.41 in 8.0 mi SSE 15.0 mph 24.2 mph N/A   Mostly Cloudy
10:05 AM 8.6 °F -10.5 °F 3.2 °F 79% 30.25 in 9.0 mi South 19.6 mph - N/A   Scattered Clouds
10:53 AM 10.0 °F -5.9 °F 3.9 °F 76% 30.40 in 10.0 mi SSE 13.8 mph 23.0 mph N/A   Partly Cloudy
11:53 AM 15.1 °F -1.1 °F 5.0 °F 64% 30.34 in 10.0 mi South 17.3 mph 26.5 mph N/A   Clear
12:53 PM 18.0 °F 1.7 °F 3.9 °F 54% 30.28 in 10.0 mi South 19.6 mph 27.6 mph N/A   Clear
1:23 PM 19.4 °F 3.6 °F 1.4 °F 46% 30.10 in 10.0 mi South 19.6 mph 27.6 mph N/A   Mostly Cloudy
1:53 PM 19.0 °F 3.2 °F 3.0 °F 50% 30.22 in 10.0 mi South 19.6 mph 25.3 mph N/A   Overcast
2:42 PM 19.4 °F 3.2 °F 5.0 °F 54% 30.05 in 10.0 mi South 20.7 mph 32.2 mph N/A   Scattered Clouds
2:53 PM 19.9 °F 4.3 °F 5.0 °F 52% 30.18 in 10.0 mi South 19.6 mph 38.0 mph N/A   Partly Cloudy
3:53 PM 21.9 °F 7.3 °F 8.1 °F 55% 30.15 in 10.0 mi SSW 18.4 mph 39.1 mph N/A   Clear
4:53 PM 21.9 °F 6.9 °F 10.0 °F 60% 30.13 in 10.0 mi SSW 19.6 mph 32.2 mph N/A   Clear
5:53 PM 19.9 °F 9.3 °F 10.0 °F 65% 30.16 in 10.0 mi South 9.2 mph - N/A   Clear
6:53 PM 19.9 °F 9.3 °F 10.0 °F 65% 30.15 in 10.0 mi South 9.2 mph - N/A   Clear
7:53 PM 19.9 °F 12.1 °F 10.9 °F 68% 30.17 in 10.0 mi SSW 5.8 mph - N/A   Clear
8:53 PM 21.0 °F 14.6 °F 12.0 °F 68% 30.17 in 10.0 mi SSW 4.6 mph - N/A   Clear
9:53 PM 21.9 °F 17.2 °F 12.9 °F 68% 30.16 in 10.0 mi South 3.5 mph - N/A   Clear
10:53 PM 24.1 °F 18.2 °F 16.0 °F 71% 30.16 in 10.0 mi West 4.6 mph - N/A   Clear
11:53 PM 25.0 °F 19.3 °F 17.1 °F 72% 30.17 in 10.0 mi WNW 4.6 mph - N/A   Clear